Погода в Андросе

Греция     37°51′28″N   24°50′52″E
темп.,
°C
ветер,
м/с
пор.,
м/с
влажн.,
%
обл.,
%
осадки,
мм/ч
давл.,
гПа
погр.,
м
24 сентября, пт
пт2400:00+19ссв810540 0.0 10191549
03:00+19ссв79540 0.0 10181491
06:00+19с57530 0.0 10181444
09:00+20ссв46515 0.0 10191410
12:00+20с34465 0.0 10191249
15:00+21сз44475 0.0 1018944
18:00+21сз22465 0.0 1017488
21:00+21ююз12485 0.0 1018353
25 сентября, сб
сб2500:00+21з345070 0.0 1018516
03:00+22з335526 0.0 1018503
06:00+21с11545 0.0 1017247
09:00+22св22460 0.0 1019221
12:00+24сз11451 0.0 1020235
15:00+24зсз11463 0.0 1019309
18:00+24зсз11500 0.0 1019157
21:00+23св22540 0.0 101952
26 сентября, вс
вс2600:00+23с34500 0.0 102080
03:00+23ссв45520 0.0 1019118
06:00+22ссв56570 0.0 1019165
09:00+23ссв67570 0.0 1019242
12:00+25с67520 0.0 1019257
15:00+25с68520 0.0 1018243
18:00+25с68580 0.0 1017235
21:00+23ссв56690 0.0 1017193
27 сентября, пн
пн2700:00+23ссв46670 0.0 1016146
03:00+23с57660 0.0 1016188
06:00+23ссв68650 0.0 1015275
09:00+23с69650 0.0 1015411
12:00+25с810540 0.0 1015307
15:00+25с79540 0.0 1014271
18:00+25с79555 0.0 1013231
21:00+24ссв56620 0.0 1014122
28 сентября, вт
вт2800:00+24с56590 0.0 1014102
03:00+24с67580 0.0 1013110
06:00+23ссв68691 0.0 1013218
09:00+23ссв78684 0.0 1013334
12:00+24с786173 0.0 1014324
15:00+25с68605 0.0 1013266
18:00+24ссв78625 0.0 1013262
21:00+23ссв676890 0.0 1014210